[[{"header":{"parameterUnit":"m.s-1","parameterCategory":1,"la1":30.2992,"la2":30.254,"lo1":-89.0895,"lo2":-89.0443,"dy":0.0025,"dx":0.0025,"nx":19,"ny":19,"refTime":"2026-03-19T03:00:00:Z","depth":0,"parameterNumber":2,"parameterNumberName":"U-component_of_WINDS"},"data":[0,0,0,0.1648,0.1649,0.1696,0.1697,0.1747,0.1747,0,0,0,0,0,0,0,0,0,0,0,0.1628,0.1628,0.1648,0.1649,0.1696,0.1697,0.1747,0.1747,0,0,0,0,0,0,0,0,0,0,0,0.1628,0.1628,0.1628,0.1649,0.1696,0.1697,0.1747,0.1715,0,0,0,0,0,0,0,0,0,0,0.1671,0.1645,0.1628,0.1628,0.1649,0.1696,0.1697,0.1713,0.1717,0.1721,0,0.1723,0,0.1736,0.175,0.175,0,0,0,0.1654,0.1643,0.1661,0.1628,0.165,0.1696,0.1676,0.1715,0.1719,0.1725,0.1723,0.1726,0.1736,0.175,0.175,0.1755,0.1755,0,0,0.1652,0.1633,0.1658,0.1663,0.1655,0.1675,0.1678,0.1718,0.1715,0.1724,0.1727,0.1737,0.1751,0.1751,0.1755,0.1755,0,0,0,0.1641,0.1631,0.1649,0.1661,0.167,0.1676,0.168,0.1713,0.172,0.1728,0.1738,0.1751,0.1751,0.1755,0.1755,0.1725,0,0,0,0.1639,0.1625,0.1647,0.1636,0.1669,0.1692,0.1674,0.1718,0.1723,0.1738,0.1751,0.1752,0.1756,0.1755,0.1727,0.1715,0,0,0,0.1627,0.1623,0.1628,0.1635,0.1655,0.1692,0.1702,0.1719,0.1729,0.175,0.1752,0.1756,0.1755,0.1728,0.1717,0.1709,0,0,0,0.1608,0.1602,0.1627,0.1624,0.1654,0.1673,0.1702,0.1717,0.1732,0.1751,0.1756,0.1755,0.1728,0.1718,0.1711,0.17,0.1693,0,0,0.159,0.1599,0.1599,0.1622,0.1631,0.1667,0.1672,0.1704,0.1724,0.1743,0.1744,0.1726,0.1717,0.171,0.1665,0.166,0,0,0,0.1586,0.1586,0.1592,0.1605,0.1628,0.1646,0.1679,0.1691,0.1708,0.173,0.1722,0.1717,0.1714,0.171,0.1705,0.1703,0.1752,0.1752,0.1752,0.1534,0.1558,0.1558,0.1587,0.1599,0.1632,0.1643,0.1664,0.1687,0.1684,0.169,0.166,0.1654,0.1651,0.1649,0.1687,0.1687,0.1686,0.1686,0.1509,0.1512,0.1539,0.1549,0.1574,0.1583,0.1613,0.1628,0.164,0.1658,0.1657,0.1674,0.1645,0.1644,0.1684,0.1685,0.1685,0.1685,0.1685,0.1478,0.1483,0.1496,0.1515,0.1527,0.1557,0.1566,0.1589,0.1611,0.1609,0.1617,0.1617,0.162,0.1611,0.1611,0.161,0.161,0.161,0.161,0.1439,0.1455,0.146,0.1482,0.1492,0.1508,0.1539,0.155,0.1567,0.1583,0.1583,0.1604,0.1638,0.1645,0.1609,0.1609,0.1609,0.1609,0.1609,0.1405,0.1416,0.1423,0.1432,0.146,0.1469,0.1497,0.1516,0.1528,0.1532,0.1553,0.1574,0.1585,0.1589,0.1595,0.1548,0.1548,0.1548,0.1548,0.1377,0.1385,0.1396,0.141,0.1426,0.1452,0.1458,0.1481,0.1508,0.1516,0.1526,0.1536,0.1539,0.1549,0.1554,0.156,0.1505,0.1505,0.1505,0.1357,0.1367,0.1368,0.1393,0.1415,0.1433,0.1439,0.1454,0.1486,0.1504,0.1523,0.1525,0.1542,0.1546,0.1565,0.1572,0.1584,0,0]},{"header":{"parameterUnit":"m.s-1","parameterCategory":1,"la1":30.2992,"la2":30.254,"lo1":-89.0895,"lo2":-89.0443,"dy":0.0025,"dx":0.0025,"nx":19,"ny":19,"refTime":"2026-03-19T03:00:00:Z","depth":0,"parameterNumber":3,"parameterNumberName":"V-component_of_WINDS"},"data":[0,0,0,2.7722,2.7721,2.769,2.7689,2.7635,2.7635,0,0,0,0,0,0,0,0,0,0,0,2.7726,2.7726,2.7722,2.7721,2.769,2.7689,2.7636,2.7635,0,0,0,0,0,0,0,0,0,0,0,2.7726,2.7726,2.7725,2.7721,2.769,2.7689,2.7636,2.7664,0,0,0,0,0,0,0,0,0,0,2.7696,2.7696,2.7726,2.7725,2.7721,2.769,2.7689,2.7665,2.7662,2.7645,0,2.7631,0,2.7632,2.7631,2.763,0,0,0,2.7724,2.7699,2.7695,2.7725,2.772,2.769,2.7705,2.7664,2.766,2.764,2.763,2.7629,2.7631,2.763,2.763,2.7526,2.7526,0,0,2.7726,2.7717,2.7698,2.7692,2.77,2.7706,2.7704,2.7661,2.7649,2.763,2.7627,2.763,2.763,2.7629,2.7527,2.7526,0,0,0,2.7729,2.7718,2.7716,2.7694,2.769,2.7705,2.7702,2.7651,2.7651,2.7627,2.763,2.763,2.7629,2.7528,2.7526,2.7485,0,0,0,2.773,2.772,2.7716,2.771,2.7691,2.767,2.7692,2.7654,2.7649,2.763,2.7629,2.7628,2.7528,2.7527,2.7488,2.7466,0,0,0,2.773,2.772,2.7714,2.771,2.7696,2.7671,2.7669,2.7653,2.7651,2.763,2.7628,2.7529,2.7527,2.749,2.747,2.7434,0,0,0,2.7726,2.7678,2.7713,2.7659,2.7697,2.7648,2.767,2.7633,2.7611,2.7629,2.7528,2.7527,2.7491,2.7473,2.7437,2.7401,2.7386,0,0,2.7659,2.7669,2.7639,2.7669,2.7612,2.7653,2.7589,2.7576,2.7582,2.7544,2.7541,2.7487,2.7471,2.7435,2.7309,2.7297,0,0,0,2.7614,2.7591,2.7578,2.7558,2.7549,2.7537,2.7537,2.7532,2.75,2.7562,2.7466,2.7457,2.7436,2.7419,2.7408,2.739,2.7519,2.7519,2.752,2.7504,2.7516,2.7465,2.7471,2.7451,2.745,2.7434,2.7426,2.7443,2.742,2.7408,2.7331,2.7311,2.7303,2.7283,2.7392,2.7392,2.7392,2.7392,2.7405,2.7374,2.7398,2.7357,2.7368,2.7332,2.7329,2.7341,2.7308,2.7341,2.7324,2.7357,2.729,2.7273,2.7389,2.7389,2.739,2.739,2.739,2.7332,2.7319,2.7316,2.7286,2.7261,2.727,2.7236,2.7248,2.7258,2.7241,2.7227,2.7228,2.7227,2.7234,2.7234,2.7234,2.7233,2.7233,2.7233,2.7257,2.7254,2.7226,2.7212,2.7199,2.7184,2.7182,2.7169,2.7157,2.7167,2.7167,2.7183,2.7283,2.7305,2.7229,2.723,2.723,2.7231,2.7231,2.7147,2.7174,2.713,2.7117,2.71,2.7073,2.709,2.7061,2.7052,2.7034,2.7055,2.7128,2.7137,2.7145,2.7164,2.7056,2.7056,2.7056,2.7056,2.7083,2.7091,2.7047,2.7026,2.7006,2.7016,2.6962,2.6959,2.696,2.6954,2.6972,2.6999,2.7007,2.7012,2.7023,2.704,2.6902,2.6902,2.6902,2.7015,2.702,2.6973,2.6977,2.6965,2.6952,2.6901,2.6872,2.6879,2.6896,2.6949,2.6955,2.6999,2.7013,2.7028,2.7046,2.7078,0,0]}]]